Погода в Беркелланде

Нидерланды     52°05′35″N   6°34′26″E
темп.,
°C
ветер,
м/с
пор.,
м/с
влажн.,
%
обл.,
%
осадки,
мм/ч
давл.,
гПа
погр.,
м
17 сентября, пт
пт1723:00+13зсз22935 0.0 101724
02:00+12зсз22951 0.0 101829
05:00+12з22965 0.0 101725
08:00+14юз1193100 0.0 101622
11:00+15юз2287100 0.0 1016217
14:00+15юз2392100 0.5 1016194
17:00+17зюз1383100 0.1 1015362
20:00+15вюв1191100 0.2 101511
18 сентября, сб
сб1823:00+14с1193100 0.0 101610
02:00+13всв119498 0.0 101611
05:00+12в119577 0.0 101613
08:00+12в239730 0.0 101751
11:00+17в337818 0.0 1017504
14:00+20всв335955 0.0 10171156
17:00+20всв335574 0.0 10161235
20:00+15всв477457 0.0 1016120
19 сентября, вс
вс1923:00+13всв4108911 0.0 1016220
02:00+12в4108948 0.0 1015205
05:00+11в4109422 0.0 1014227
08:00+12в5119435 0.0 1014282
11:00+16в697094 0.0 1015519
14:00+19в675956 0.0 10141070
17:00+19в576097 0.1 10141011
20:00+17всв61059100 0.1 1014442
20 сентября, пн
пн2023:00+15в51059100 0.0 1015361
02:00+14в5962100 0.0 1015311
05:00+12всв486668 0.0 1015215
08:00+11всв476970 0.0 1016198
11:00+14всв576074 0.0 1017501
14:00+17всв555363 0.0 10181023
17:00+18всв455314 0.0 10181292
20:00+13ссв4969100 0.0 1020197
21 сентября, вт
вт2123:00+10св487836 0.0 1021145
02:00+9ссв36820 0.0 102297
05:00+8ссв35826 0.0 102282
08:00+8ссв358498 0.0 102496
11:00+13ссв3462100 0.0 1025456
14:00+16ссв345258 0.0 10251189
17:00+17ссв3452100 0.0 10251256
20:00+12св2268100 0.0 102615